Regional Weather Roundup
Issued by NWS

Home | Current Version | Previous Version | Text Only | Print | Product List | Glossary On
Versions: 1 2 3 4 5 6 7 8 9 10 11 12 13 14 15 16 17 18 19 20 21 22 23 24 25 26 27 28 29 30 31 32 33 34 35 36 37 38 39 40 41 42 43 44 45 46 47 48 49 50
000
ASUS45 KTFX 101319
RWRMT
MONTANA HOURLY WEATHER ROUNDUP
NATIONAL WEATHER SERVICE GREAT FALLS MT
719 AM MDT THU JUL 10 2014

NOTE: "FAIR" INDICATES FEW OR NO CLOUDS BELOW 12000 FEET WITH NO
SIGNIFICANT WEATHER AND/OR OBSTRUCTIONS TO VISIBILITY.

* THESE STATIONS ARE NOT UNDER NWS QUALITY CONTROL. THEY DO NOT
   REPORT WEATHER SUCH AS PRECIPITATION OR FOG.

MTZ001>007-043-101400-
WEST OF THE DIVIDE
CITY           SKY/WX    TMP DP  RH WIND       PRES   REMARKS
KALISPELL      FOG       54  50  86 CALM      29.86R
MISSOULA       CLEAR     55  48  77 S3        29.95R
BUTTE          CLEAR     50  46  86 SE3       30.08R
MULLAN PASS    CLEAR     61  37  41 VRB7      30.04S
* ESSEX        N/A      N/A N/A N/A N/A        N/A
* LOOKOUT PASS N/A       58  43  58 SE1        N/A
* RONAN APT    CLEAR     55  50  83 N/A        N/A
* YAAK HILL    N/A       54  49  83 NE1        N/A
$$

MTZ008-052>055-101400-
SOUTHWEST MONTANA
CITY           SKY/WX    TMP DP  RH WIND       PRES   REMARKS
BOZEMAN        CLEAR     59  54  84 CALM      30.00R
DILLON         PTCLDY    59  50  72 CALM      30.04R
W YELLOWSTONE  CLOUDY    54  52  93 CALM      30.14S
* THREE FORKS  CLEAR     55  36  49 N/A        N/A
* BOULDER HILL N/A       58  45  62 S7         N/A
* MONIDA PASS  N/A       50  47  89 NW2        N/A
* RAYNOLDS PAS N/A       53  17  24 NE1        N/A
$$

MTZ009>010-012-014-046-048-049-054-101400-
EAST SLOPES AND CENTRAL MONTANA
CITY           SKY/WX    TMP DP  RH WIND       PRES   REMARKS
CUT BANK       CLEAR     57  52  83 NW10      29.93R
GREAT FALLS    CLEAR     63  48  58 N7        29.90R
HELENA         CLEAR     63  48  58 CALM      29.95R
* CONRAD       CLEAR     57  55  93 W14G20     N/A
* DEARBORN     N/A       59  50  72 SW1        N/A
* EAST GLACIER N/A       52  48  86 NW2        N/A
* MONARCH      N/A       59  37  44 SW8        N/A
* PENDROY      N/A       55  53  93 N9         N/A
* ROGERS PASS  N/A       63  44  50 S5         N/A
* SWEET GRASS  N/A       56  56 100 NW14       N/A
$$

MTZ011-013-016-021-035-040-045-047-050-051-101400-
NORTH CENTRAL MONTANA
CITY           SKY/WX    TMP DP  RH WIND       PRES   REMARKS
HAVRE          CLEAR     63  54  73 W12       29.81R
* FORT BENTON  CLEAR     64  50  61 S6        29.87R
* CHESTER      N/A       60  51  72 NW6G13     N/A
* DENTON       N/A       69  48  47 W8         N/A
* GEYSER       N/A       68  44  42 W7         N/A
* JUDITH GAP   N/A       64  50  61 N/A        N/A
* LOMA         N/A       65  53  65 SW13       N/A
$$

MTZ017>020-022>027-061-062-101400-
NORTHEAST MONTANA
CITY           SKY/WX    TMP DP  RH WIND       PRES   REMARKS
GLASGOW        MOCLDY    70  61  73 SE15G24   29.72R
GLENDIVE       CLOUDY    63  57  81 E7        29.84F
JORDAN         PTCLDY    72  57  59 W5        29.78R
SIDNEY         CLOUDY    63  59  87 S14       29.81R
WOLF POINT     CLOUDY    72  57  59 S10G18    29.74S
* BEAVER HILL  N/A       61  58  90 SE6        N/A
* CIRCLE       N/A       68  60  76 SE1G7      N/A
* LINDSAY DVD  N/A       62  59  90 E10        N/A
* NAVAJO       N/A       65  59  81 SW17G29    N/A
* SACO         N/A       67  55  66 SE2        N/A
$$

MTZ028>042-056>058-101400-
SOUTHCENTRAL AND SOUTHEAST MONTANA
CITY           SKY/WX    TMP DP  RH WIND       PRES   REMARKS
BAKER          CLOUDY    63  57  81 N7        29.89R
BILLINGS       CLOUDY    70  55  59 SW10      29.89R
LIVINGSTON     MOCLDY    66  52  61 W10       29.98R
MILES CITY     CLOUDY    66  61  84 E10       29.80F
* LAUREL APT   CLOUDY    66  55  68 N/A        N/A
* ROUNDUP APT  PTCLDY    68  50  53 S8         N/A
* ALZADA       N/A       60  58  93 W2         N/A
* HYSHAM       N/A       70  55  59 W5         N/A
* LAME DEER    N/A       68  53  59 NW8G13     N/A
* REED POINT   N/A       72  50  46 W8         N/A
* ROSCOE HILL  N/A       65  45  49 S6         N/A
$$

REGIONAL REPORTS...DAKOTAS
CITY           SKY/WX    TMP DP  RH WIND       PRES   REMARKS
WILLISTON      CLOUDY    70  54  57 S8        29.79F
DICKINSON      CLOUDY    63  57  81 S12       29.87R
CROSBY         CLEAR     66  59  78 S18G26    29.77S
TIOGA          MOCLDY    63  63 100 S13       29.86F
WATFORD CITY   CLEAR     66  54  65 S7        29.81R
BISMARCK       MOCLDY    63  57  81 SE6       29.89F
GRAND FORKS    CLEAR     61  54  78 S9        29.94S
FARGO          CLEAR     66  54  65 SE9       29.96S
BUFFALO SD     CLOUDY    61  57  87 E10       29.80F
RAPID CITY     MOCLDY    61  59  93 SE7       29.87R
$$

REGIONAL REPORTS...WYOMING/IDAHO/WASHINGTON
CITY           SKY/WX    TMP DP  RH WIND       PRES   REMARKS
GILLETTE       PTCLDY    64  57  78 SW15G20   29.94R
SHERIDAN       MOCLDY    68  55  63 SW6       29.94R
YELLOWSTONE LA CLOUDY    54  48  80 CALM      30.24R
SALMON         PTCLDY    54  54 100 CALM      30.05R
MULLAN PASS    CLEAR     61  37  41 VRB7      30.04S
SAND POINT     CLEAR     52  52 100 CALM      29.83R
SPOKANE        FAIR      63  41  45 NE6       29.84R
$$

REGIONAL REPORTS...ALBERTA
CITY           SKY/WX    TMP DP  RH WIND       PRES   REMARKS
CALGARY        FAIR      55  45  69 N9        29.93R
LETHBRIDGE     N/A       59  54  84 NW6       29.90R
MEDICINE HAT   N/A       61  54  78 NW9       29.83R
EDMONTON       MOCLDY    54  48  80 SW8       29.86R
WATERTON GATE  N/A       52  48  86 NE1        N/A
CARDSTON       N/A       57  52  83 NW3        N/A
MILK RIVER     N/A       59  52  78 NW12       N/A
$$

REGIONAL REPORTS...SASKATCHEWAN
CITY           SKY/WX    TMP DP  RH WIND       PRES   REMARKS
SWIFT CURRENT  CLEAR     63  57  81 NE12      29.72R
MOOSE JAW      FAIR      70  59  68 S7        29.65F
REGINA         FAIR      64  59  84 SE9       29.69R
VAL MARIE      N/A       63  57  81 S2         N/A
ASSINIBOIA     N/A       66  55  68 W6         N/A
CORONACH       N/A       66  57  73 SE9        N/A

$$




USA.gov is the U.S. government's official web portal to all federal, state and local government web resources and services.